GW0699 Weather Reports


Display with metric or nautical units.
time (UTC)temp
F
wind
direction
speed
MPH
gust
MPH
rain 1hr
in
rain 24hr
in
rain mn
in
humidity
%
barometer
mb
20260507003032 56 300 5.0 0.0 0.00 0.00 0.00 77 1019.9
20260507001605 56 343 7.0 0.0 0.00 0.00 0.00 77 1019.6
20260507000058 56 322 5.0 0.0 0.00 0.00 0.00 77 1019.6
20260506234609 57 360 4.0 0.0 0.00 0.00 0.00 78 1019.6
20260506233024 56 340 7.0 0.0 0.00 0.00 0.00 77 1019.6
20260506231540 57 322 6.0 0.0 0.00 0.00 0.00 76 1019.6
20260506230056 58 312 6.0 0.0 0.00 0.00 0.00 76 1019.6
20260506224514 58 313 6.0 0.0 0.00 0.00 0.00 75 1019.8
20260506223042 58 24 6.0 0.0 0.00 0.00 0.00 74 1019.8
20260506221507 58 311 5.0 0.0 0.00 0.00 0.00 74 1019.9
20260506220035 58 5 5.0 0.0 0.00 0.00 0.00 74 1019.7
20260506214535 59 360 5.0 0.0 0.00 0.00 0.00 74 1019.8
20260506213053 59 294 6.0 0.0 0.00 0.00 0.00 75 1019.7
20260506211513 59 44 6.0 0.0 0.00 0.00 0.00 73 1019.8
20260506210034 59 344 6.0 0.0 0.00 0.00 0.00 74 1019.6
20260506204556 59 315 5.0 0.0 0.00 0.00 0.00 72 1019.6
20260506203031 60 319 6.0 0.0 0.00 0.00 0.00 73 1019.7
20260506201513 58 304 6.0 0.0 0.00 0.00 0.00 73 1019.8
20260506200051 58 348 5.0 0.0 0.00 0.00 0.00 74 1020.0
20260506194531 58 9 4.0 0.0 0.00 0.00 0.00 75 1019.9
20260506193048 57 17 3.0 0.0 0.00 0.00 0.00 76 1019.8
20260506191558 56 289 2.0 0.0 0.00 0.00 0.00 80 1019.8
20260506184501 56 311 3.0 0.0 0.00 0.00 0.00 81 1019.9
20260506183017 55 319 3.0 0.0 0.00 0.00 0.00 83 1020.0
20260506181613 55 271 3.0 0.0 0.00 0.00 0.00 83 1020.0
20260506180018 54 5 4.0 0.0 0.00 0.00 0.00 83 1019.9
20260506174534 55 331 2.0 0.0 0.00 0.00 0.00 82 1019.6
20260506173056 55 22 1.0 0.0 0.00 0.00 0.00 83 1019.5
20260506171603 54 44 1.0 0.0 0.00 0.00 0.00 83 1019.5
20260506170017 54 303 0.0 0.0 0.00 0.00 0.00 84 1019.3
20260506164536 54 344 1.0 0.0 0.00 0.00 0.00 83 1019.5
20260506163051 53 333 2.0 0.0 0.00 0.00 0.00 83 1019.5
20260506161606 53 30 1.0 0.0 0.00 0.00 0.00 83 1019.2
20260506160038 53 308 2.0 0.0 0.00 0.00 0.00 84 1019.3
20260506154605 53 19 3.0 0.0 0.00 0.00 0.00 84 1019.2
20260506153043 53 270 1.0 0.0 0.00 0.00 0.00 84 1019.0
20260506151517 53 300 1.0 0.0 0.00 0.00 0.00 85 1018.5
20260506150033 53 5 0.0 0.0 0.00 0.00 0.00 84 1018.5
20260506144553 52 5 2.0 0.0 0.00 0.00 0.00 86 1019.0
20260506143103 52 360 2.0 0.0 0.00 0.00 0.00 87 1019.0
20260506141540 51 360 2.0 0.0 0.00 0.00 0.00 87 1019.0
20260506134536 51 321 2.0 0.0 0.00 0.00 0.00 88 1018.4
20260506133053 51 5 1.0 0.0 0.00 0.00 0.00 88 1018.4
20260506131606 51 10 2.0 0.0 0.00 0.00 0.00 89 1018.3
20260506130039 51 340 1.0 0.0 0.00 0.00 0.00 89 1018.1
20260506124559 51 355 1.0 0.0 0.00 0.00 0.00 89 1017.9
20260506123012 51 306 2.0 0.0 0.00 0.00 0.00 89 1017.8
20260506121523 51 333 2.0 0.0 0.00 0.00 0.00 89 1017.7
20260506120106 51 348 2.0 0.0 0.00 0.00 0.00 89 1017.7
20260506114527 51 317 2.0 0.0 0.00 0.00 0.00 89 1017.6
20260506113037 52 346 3.0 0.0 0.00 0.00 0.00 89 1017.6
20260506111509 52 332 2.0 0.0 0.00 0.00 0.00 89 1017.4
20260506110045 52 9 3.0 0.0 0.00 0.00 0.00 89 1017.3
20260506104503 52 30 2.0 0.0 0.00 0.00 0.00 88 1017.1
20260506103032 52 355 3.0 0.0 0.00 0.00 0.00 88 1017.1
20260506101545 52 336 2.0 0.0 0.00 0.00 0.00 88 1017.0
20260506100034 53 355 3.0 0.0 0.00 0.00 0.00 88 1016.8
20260506094559 53 324 2.0 0.0 0.00 0.00 0.00 88 1016.7
20260506093006 53 322 3.0 0.0 0.00 0.00 0.00 88 1016.5
20260506091524 53 355 4.0 0.0 0.00 0.00 0.00 87 1016.4
20260506090044 53 23 3.0 0.0 0.00 0.00 0.00 87 1016.5
20260506084559 53 345 3.0 0.0 0.00 0.00 0.00 87 1016.4
20260506083038 53 10 3.0 0.0 0.00 0.00 0.00 87 1016.4
20260506081603 53 311 3.0 0.0 0.00 0.00 0.00 87 1016.3
20260506073046 53 307 2.0 0.0 0.00 0.00 0.00 87 1016.1
20260506071524 53 346 2.0 0.0 0.00 0.00 0.00 87 1015.9
20260506061529 54 15 3.0 0.0 0.00 0.00 0.00 86 1015.5
20260506044614 54 15 4.0 0.0 0.00 0.00 0.00 85 1015.2
20260506043017 54 9 4.0 0.0 0.00 0.00 0.00 84 1015.0
20260506041533 55 355 4.0 0.0 0.00 0.00 0.00 83 1014.7
20260506040011 55 46 3.0 0.0 0.00 0.00 0.00 82 1014.7
20260506034534 56 350 4.0 0.0 0.00 0.00 0.00 81 1014.3
20260506033055 57 355 3.0 0.0 0.00 0.00 0.00 80 1014.1
20260506031526 57 355 3.0 0.0 0.00 0.00 0.00 78 1014.0
20260506030041 58 308 3.0 0.0 0.00 0.00 0.00 77 1013.8
20260506024558 59 304 3.0 0.0 0.00 0.00 0.00 76 1013.6
20260506023101 60 337 5.0 0.0 0.00 0.00 0.00 75 1013.5
20260506021522 60 345 4.0 0.0 0.00 0.00 0.00 74 1013.6
20260506020105 61 313 4.0 0.0 0.00 0.00 0.00 73 1013.5
20260506014512 62 13 4.0 0.0 0.00 0.00 0.00 73 1013.5
20260506013022 62 325 3.0 0.0 0.00 0.00 0.00 73 1013.5
20260506011547 62 319 3.0 0.0 0.00 0.00 0.00 72 1013.5
20260506010014 63 9 3.0 0.0 0.00 0.00 0.00 70 1013.5
20260506004528 63 331 2.0 0.0 0.00 0.00 0.00 71 1013.6